Olympic Dam Airport, Australia

3:23 PM ACDT on March 25, 2017 (GMT +1030)
Olympic Dam

Weather History for YOLD - February, 2014

Change the Weather History Date:

Thursday, February 13, 2014

  Actual Average Record
Temperature  
Mean Temperature 98 °F -  
Max Temperature 111 °F - - ()
Min Temperature 86 °F - - ()
Cooling Degree Days 34    
Growing Degree Days 48 (Base 50)    
Moisture  
Dew Point 51 °F    
Average Humidity 22    
Maximum Humidity 48    
Minimum Humidity 10    
Precipitation  
Precipitation 0.00 in - - ()
Sea Level Pressure  
Sea Level Pressure 29.64 in    
Wind  
Wind Speed 12 mph ()    
Max Wind Speed 23 mph    
Max Gust Speed 33 mph    
Visibility 6.2 miles    
Events      
T = Trace of Precipitation, MM = Missing Value Source: Averaged Metar Reports

Daily Weather History Graph

Daily Weather History Graph

Search for Another Location

Airport or City:

Trip Planner

Search our weather history database for the weather conditions in past years. The results will help you decide how hot, cold, wet, or windy it might be!

Date:

Astronomy

Feb. 13, 2014 Rise Set
Actual Time 7:00 AM ACDT 8:12 PM ACDT
Civil Twilight 6:34 AM ACDT 8:37 PM ACDT
Nautical Twilight 6:04 AM ACDT 9:07 PM ACDT
Astronomical Twilight 5:33 AM ACDT 9:38 PM ACDT
Moon 6:52 PM ACDT (2/13) 5:17 AM ACDT (2/13)
Length of Visible Light 14h 02m
Length of Day
13h 12m
Waxing Gibbous, 97% of the Moon is Illuminated
Feb 13
Waxing Gibbous
Feb 15
Full
Feb 23
Last Quarter
Mar 1
New
Mar 8
First Quarter

Hourly Weather History & Observations

Time (ACDT) Temp. Heat Index Dew Point Humidity Pressure Visibility Wind Dir Wind Speed Gust Speed Precip Events Conditions
12:30 AM 93.2 °F 93.3 °F 60.8 °F 34% 29.74 in 6.2 mi SSE 11.5 mph - N/A   Unknown
1:30 AM 89.6 °F 91.1 °F 64.4 °F 43% 29.74 in 6.2 mi ESE 11.5 mph - N/A   Unknown
2:30 AM 89.6 °F 91.1 °F 64.4 °F 43% 29.71 in 6.2 mi SE 8.1 mph - N/A   Unknown
3:30 AM 87.8 °F 89.4 °F 64.4 °F 46% 29.71 in 6.2 mi ESE 5.8 mph - N/A   Unknown
4:30 AM 86.0 °F 87.3 °F 64.4 °F 48% 29.68 in 6.2 mi ESE 4.6 mph - N/A   Unknown
5:30 AM 86.0 °F 86.6 °F 62.6 °F 45% 29.71 in 6.2 mi SSE 5.8 mph - N/A   Unknown
6:30 AM 86.0 °F 86.6 °F 62.6 °F 45% 29.71 in 6.2 mi ENE 5.8 mph - N/A   Unknown
7:30 AM 87.8 °F 87.1 °F 59.0 °F 38% 29.71 in 6.2 mi ENE 5.8 mph - N/A   Unknown
8:30 AM 93.2 °F 91.9 °F 57.2 °F 30% 29.74 in 6.2 mi NE 10.4 mph - N/A   Unknown
9:30 AM 100.4 °F 98.4 °F 53.6 °F 21% 29.74 in 6.2 mi North 15.0 mph - N/A   Unknown
10:30 AM 102.2 °F - 50.0 °F 17% 29.74 in 6.2 mi North 20.7 mph - N/A   Unknown
11:01 AM 104.0 °F - 48.2 °F 15% 29.71 in 6.2 mi NNW 20.7 mph 33.4 mph N/A   Unknown
11:30 AM 105.8 °F - 48.2 °F 14% 29.71 in 6.2 mi North 20.7 mph - N/A   Unknown
12:30 PM 105.8 °F - 46.4 °F 14% 29.68 in 6.2 mi NNW 19.6 mph - N/A   Scattered Clouds
12:43 PM 107.6 °F - 46.4 °F 13% 29.68 in 6.2 mi North 18.4 mph 29.9 mph N/A   Scattered Clouds
1:32 PM 109.4 °F - 46.4 °F 12% 29.65 in 6.2 mi NNW 18.4 mph 32.2 mph N/A   Scattered Clouds
2:25 PM 109.4 °F - 46.4 °F 12% 29.62 in 6.2 mi North 16.1 mph 29.9 mph N/A   Scattered Clouds
2:34 PM 109.4 °F - 46.4 °F 12% 29.62 in 6.2 mi NNW 17.3 mph 28.8 mph N/A   Mostly Cloudy
3:22 PM 111.2 °F - 44.6 °F 11% 29.59 in 6.2 mi NNW 17.3 mph 31.1 mph N/A   Scattered Clouds
3:30 PM 109.4 °F - 44.6 °F 11% 29.59 in 6.2 mi NNW 18.4 mph 31.1 mph N/A   Scattered Clouds
4:30 PM 111.2 °F - 44.6 °F 11% 29.56 in 6.2 mi North 17.3 mph - N/A   Scattered Clouds
4:47 PM 109.4 °F - 46.4 °F 12% 29.56 in 6.2 mi NNW 17.3 mph 28.8 mph N/A   Scattered Clouds
5:30 PM 109.4 °F - 44.6 °F 11% 29.53 in 6.2 mi North 18.4 mph - N/A   Scattered Clouds
6:30 PM 109.4 °F - 46.4 °F 12% 29.53 in 6.2 mi North 15.0 mph - N/A   Scattered Clouds
7:30 PM 107.6 °F - 46.4 °F 13% 29.53 in 6.2 mi North 17.3 mph - N/A   Unknown
8:30 PM 105.8 °F - 44.6 °F 13% 29.53 in 6.2 mi North 11.5 mph - N/A   Unknown
9:30 PM 104.0 °F - 41.0 °F 12% 29.56 in 6.2 mi North 11.5 mph - N/A   Scattered Clouds
10:30 PM 102.2 °F - 41.0 °F 12% 29.56 in 6.2 mi North 11.5 mph - N/A   Unknown
11:30 PM 100.4 °F - 33.8 °F 10% 29.56 in 6.2 mi North 13.8 mph - N/A   Scattered Clouds
11:57 PM 98.6 °F 98.5 °F 59.0 °F 27% 29.56 in 6.2 mi West 23.0 mph - N/A   Mostly Cloudy